Theta_e
318 317 316 315 315 315 314 313 313 314 314 313 312 312 310 309 305 303 301 303 302 300 306 305 302 302 304 305 304 303 302 301 300 299 298 299 299 299 301 304 306 307 309 310 311 312 312 312 312 311 311 311 311 309 309 308 308 308 308 308 309 308 307 307 306 305 305 305 304 304 303 303 302 302
319 318 318 317 316 316 315 314 313 312 314 314 313 312 312 311 308 307 304 305 303 301 300 305 304 299 301 303 302 302 303 301 300 299 298 298 299 299 300 302 305 306 308 310 310 310 312 312 312 311 310 310 310 309 310 309 308 308 308 308 308 307 307 306 304 304 303 304 303 303 303 303 303 302
318 317 317 318 317 317 316 316 315 313 313 314 314 313 313 312 311 310 309 305 308 309 304 303 305 303 301 302 303 302 302 301 300 299 298 297 297 296 298 299 303 305 307 307 308 309 311 312 312 311 310 310 310 310 309 309 308 307 307 306 306 305 305 304 304 304 304 304 303 303 303 303 302 302
319 318 317 316 317 317 317 316 316 316 314 314 313 313 313 313 313 312 311 308 309 307 308 306 305 306 304 302 301 301 301 300 296 298 298 297 294 295 296 297 299 301 303 304 305 307 308 309 311 311 310 309 309 309 309 308 308 308 307 306 305 304 304 303 302 303 303 302 302 302 302 302 301 301
318 317 317 316 317 317 317 317 317 316 316 315 314 314 313 312 312 312 311 309 309 306 301 304 307 305 306 300 300 300 299 297 296 295 296 295 294 294 294 295 295 298 301 303 305 305 305 306 308 309 309 309 309 308 308 307 306 306 305 304 304 304 303 303 303 303 302 302 302 302 301 301 301 300
318 317 316 316 316 317 317 317 315 316 316 316 315 314 313 313 312 313 312 310 310 310 299 300 297 297 300 303 298 299 298 297 293 293 293 293 294 294 294 293 294 296 299 301 303 304 304 304 304 305 305 307 307 307 307 305 306 305 304 303 303 303 303 303 303 303 302 302 302 301 301 300 300 299
316 315 315 316 316 317 315 315 316 314 314 314 313 313 312 312 313 312 312 312 310 309 307 301 302 298 296 301 300 297 298 296 293 292 292 293 293 293 294 292 292 295 297 300 301 302 303 303 303 303 303 304 305 306 306 305 304 304 303 303 302 301 301 301 301 301 300 300 299 299 299 298 298 298
315 315 315 316 316 315 314 315 315 314 314 313 313 313 313 313 313 313 312 312 311 311 310 296 303 298 297 295 293 294 293 292 291 291 291 292 292 292 292 292 291 293 296 298 299 300 301 301 301 301 302 302 303 303 303 302 302 301 301 301 300 299 299 299 298 298 298 298 298 297 297 297 297 297
316 316 315 316 316 315 314 314 314 314 313 313 313 313 313 313 313 313 313 312 312 311 310 304 296 294 293 289 288 290 291 289 289 289 289 289 290 291 291 291 291 292 295 296 297 298 299 300 301 301 301 301 301 301 300 300 300 299 298 298 297 297 297 297 297 296 296 296 295 295 296 296 296 296
316 316 316 316 315 314 314 313 313 313 312 312 312 312 312 312 312 312 311 311 310 310 311 310 300 289 293 289 288 289 291 290 288 287 287 287 288 288 288 288 289 289 290 291 293 295 296 297 299 300 300 300 300 299 299 298 298 297 297 297 296 296 296 296 296 296 295 295 294 294 294 294 294 294
317 317 316 315 315 314 314 313 313 312 311 311 311 311 311 311 310 309 309 306 306 307 306 302 296 294 290 291 291 287 289 289 290 290 287 287 287 286 287 287 287 288 288 290 291 292 292 293 294 296 297 298 298 298 298 298 297 296 296 296 296 296 295 295 295 294 294 294 294 294 293 293 293 292
316 316 316 316 315 315 315 314 314 313 312 311 310 311 310 309 308 307 304 302 303 304 303 302 298 293 292 287 286 286 287 287 287 288 290 291 289 286 286 287 287 286 286 286 286 290 291 292 293 294 295 296 296 296 295 295 294 293 295 295 295 295 295 294 294 294 293 293 293 293 292 291 291 291
316 316 316 316 316 313 304 304 305 306 306 312 310 309 309 308 308 307 305 303 302 302 302 301 298 294 290 291 288 286 286 288 292 290 288 289 290 288 286 286 286 286 285 286 286 286 286 286 286 287 287 287 291 291 292 291 292 293 294 294 294 294 294 294 293 293 292 292 292 291 291 290 290 290
315 315 315 314 302 301 299 299 300 301 302 303 309 312 310 309 307 304 302 302 302 301 300 300 298 294 293 292 290 290 289 290 287 287 287 288 288 286 286 286 286 286 286 285 285 285 285 285 285 283 283 284 285 285 285 285 287 289 292 292 292 293 293 292 292 291 291 291 291 290 289 289 289 289
313 314 315 315 307 301 299 301 298 300 300 300 301 302 304 305 309 303 300 301 301 299 299 299 297 297 296 294 291 291 292 288 289 289 288 289 287 287 287 288 286 286 286 285 285 285 284 285 284 282 282 282 281 283 283 287 288 289 290 290 290 290 290 290 290 290 289 289 288 288 288 288 288 289
313 312 312 312 313 311 309 309 305 299 297 298 299 299 300 300 301 303 304 301 299 298 298 298 298 297 297 297 291 291 290 289 288 288 287 287 288 287 287 289 289 286 286 285 284 283 281 283 282 281 281 281 281 282 284 287 289 289 290 290 290 290 290 289 289 288 288 288 288 288 288 288 288 288
314 313 311 311 311 313 298 298 306 307 304 297 297 298 298 298 299 301 301 302 305 302 299 298 298 297 298 297 295 293 292 292 288 288 287 287 287 288 289 289 288 283 286 285 283 281 281 281 281 280 280 280 280 281 286 288 289 289 288 288 288 288 288 288 288 287 287 287 287 287 287 288 288 288
313 313 310 308 307 305 304 305 306 307 307 306 303 301 301 302 299 297 297 298 297 299 303 301 300 300 299 299 299 295 292 290 289 287 288 287 287 287 289 288 287 284 286 285 283 279 278 278 278 279 278 277 277 277 285 288 288 287 287 287 288 288 288 288 287 287 286 286 286 287 287 287 287 287
313 312 311 309 308 307 305 304 302 302 303 303 303 302 301 301 301 301 300 299 299 299 301 301 301 301 299 300 297 294 292 293 293 292 290 289 288 287 284 282 283 283 284 284 284 280 277 275 278 277 275 276 276 276 286 287 287 287 287 287 288 287 287 287 286 286 286 286 286 285 285 285 285 285
310 309 309 307 305 304 303 299 297 299 302 303 299 296 296 296 297 298 297 298 299 300 301 301 301 302 300 298 296 293 293 293 291 289 288 288 287 286 286 285 280 281 282 283 281 275 275 275 278 276 274 276 276 276 276 286 286 287 287 287 286 286 285 285 285 284 284 284 284 284 284 284 284 283
306 304 303 303 304 303 303 299 299 298 297 300 297 295 295 295 294 295 294 294 295 296 296 297 297 297 297 297 297 295 294 292 291 289 288 286 287 286 285 284 281 281 280 280 279 277 275 276 274 276 273 274 273 272 272 275 286 286 286 285 285 285 284 284 283 283 283 283 283 283 283 283 282 281
301 301 294 294 301 302 302 298 298 298 296 297 296 294 293 292 292 292 291 291 291 292 293 293 293 294 295 295 296 295 294 293 291 291 290 288 287 287 287 285 283 280 278 280 278 279 276 276 274 275 272 274 270 269 271 272 278 284 284 284 284 283 283 283 282 282 282 282 282 282 282 282 281 278
300 300 295 292 294 297 298 298 298 298 296 298 297 296 294 293 292 293 291 290 289 288 288 289 289 289 290 292 292 291 293 292 290 293 292 289 288 288 287 284 280 279 278 280 279 279 274 277 276 276 273 270 270 266 267 269 269 273 273 275 278 281 281 281 281 281 281 281 281 281 281 281 280 277
297 297 296 294 294 295 295 297 298 297 296 296 297 295 294 293 293 293 290 289 290 290 290 289 288 289 288 288 288 289 290 289 288 289 288 289 289 289 287 284 284 283 280 280 280 279 273 277 276 272 272 271 268 269 268 269 269 270 270 272 270 277 278 278 278 279 279 279 280 280 280 280 279 276
296 297 296 294 293 295 295 295 296 296 296 295 295 295 294 295 296 292 291 289 288 289 288 287 286 286 286 286 287 287 287 287 287 287 287 288 288 289 287 285 284 279 274 277 283 278 275 275 275 270 268 267 270 270 267 267 269 269 270 271 271 270 271 271 272 270 277 277 279 279 278 279 279 277
295 295 295 293 292 293 294 294 295 295 296 295 293 295 295 296 295 291 291 291 289 289 288 287 286 286 285 285 286 286 286 286 285 285 284 285 285 285 287 287 284 279 276 278 284 277 275 273 275 273 269 271 268 270 268 268 269 268 269 270 270 267 270 270 269 269 269 270 272 275 276 278 278 278
295 295 295 294 291 292 293 294 295 295 296 294 294 295 295 294 294 291 290 289 289 289 288 287 286 286 286 285 285 285 285 284 283 282 281 280 280 279 279 280 282 281 279 280 279 276 276 273 273 276 270 270 272 267 268 266 267 267 269 269 269 269 270 269 270 270 272 272 272 275 275 276 276 277
293 294 294 292 293 292 292 293 294 294 294 292 294 294 294 293 292 290 289 288 288 287 286 286 286 286 286 286 285 285 284 282 281 279 278 278 279 278 278 279 278 279 279 277 275 275 276 275 273 272 275 274 272 271 269 268 269 268 268 268 268 270 269 269 268 271 272 271 270 269 268 269 270 271
291 291 292 292 292 292 292 293 293 293 292 293 293 293 292 290 290 289 288 288 287 286 286 286 286 286 286 286 285 284 282 280 279 278 277 277 277 277 277 277 277 277 276 276 275 275 276 276 274 273 272 269 271 269 271 269 269 269 270 269 266 268 269 267 270 271 271 270 267 267 267 267 267 269
289 289 290 290 291 290 291 290 290 290 290 290 290 290 290 290 289 289 289 288 287 287 287 287 286 287 286 285 284 282 280 280 279 278 277 276 277 277 277 276 275 275 275 275 275 275 275 275 275 274 273 271 272 271 271 271 269 270 271 268 268 268 267 267 271 272 270 267 267 267 268 268 268 269
289 289 289 290 290 290 290 289 289 289 288 288 289 289 289 289 289 289 289 289 288 288 288 287 287 287 285 283 281 280 280 279 279 279 277 277 276 276 276 275 273 273 273 273 274 274 274 275 275 275 273 271 272 272 272 271 270 269 270 269 267 263 265 268 268 267 267 267 266 267 267 267 268 270
289 289 288 288 288 288 288 287 288 288 288 288 288 288 288 288 288 287 287 287 288 288 287 286 284 282 281 280 280 280 279 279 278 278 277 276 275 275 275 273 272 271 271 272 272 273 273 273 273 273 274 273 271 271 271 269 268 268 267 267 267 266 268 266 265 266 267 268 267 265 265 266 266 267
288 288 287 287 287 287 287 287 287 287 287 286 287 287 287 287 287 287 287 287 287 287 285 284 283 282 281 281 280 280 279 278 278 278 277 277 275 276 276 273 271 270 270 270 271 271 271 272 272 272 272 272 273 272 270 267 265 264 266 265 266 265 264 266 266 266 267 267 266 264 264 263 266 267
288 288 287 287 287 287 287 286 286 286 286 285 285 285 286 286 286 286 286 287 287 286 285 284 283 282 282 281 280 279 278 278 278 278 278 276 276 275 274 272 271 271 271 270 270 270 270 270 271 270 270 268 268 269 268 268 266 263 263 265 265 263 265 267 265 264 265 266 265 263 263 263 264 265
287 287 287 287 287 287 287 287 287 287 286 285 285 285 285 285 285 285 286 286 286 285 284 283 283 282 282 281 280 279 278 277 277 277 278 277 276 275 273 271 271 271 270 270 270 270 270 270 270 269 269 269 269 269 271 265 265 264 263 263 264 265 264 265 265 263 264 266 267 265 263 262 263 264
287 287 287 287 287 287 287 287 287 287 286 286 286 285 284 284 285 285 285 286 285 284 284 283 282 282 282 281 280 279 278 277 277 277 276 276 275 274 274 272 271 271 271 270 270 271 271 270 270 268 267 266 266 265 266 274 269 263 267 265 264 264 264 265 263 262 265 266 268 266 262 261 262 264
287 287 287 287 287 287 287 287 287 287 287 287 286 286 285 285 285 285 286 286 285 284 284 283 283 282 282 281 280 279 279 277 276 276 276 276 275 274 273 272 272 271 271 271 271 271 271 270 270 269 268 266 265 265 266 269 273 274 270 267 263 263 264 262 261 261 263 264 265 264 262 262 261 264
287 287 287 287 287 287 287 287 287 287 287 287 286 286 286 286 286 285 285 285 284 284 283 283 282 282 282 280 280 278 277 277 276 276 275 275 274 273 273 272 271 271 271 271 271 271 271 270 270 269 269 267 266 265 264 266 267 272 274 268 264 262 263 262 260 260 262 265 265 265 262 261 262 264
287 287 287 287 287 287 287 287 287 287 287 287 286 286 286 286 285 285 284 284 284 283 283 282 282 281 281 280 280 278 277 276 275 275 275 275 274 274 273 272 272 272 271 270 271 270 270 270 270 269 269 268 267 267 268 266 266 267 270 273 267 263 261 262 259 258 259 260 262 261 262 263 267 272
287 287 287 287 287 288 288 288 287 287 287 287 287 286 286 285 285 284 283 283 283 282 282 281 281 280 279 278 278 277 276 276 275 275 275 275 274 274 273 273 272 271 271 270 269 270 270 270 270 269 269 269 268 268 268 266 264 265 269 272 273 268 264 263 261 260 260 263 265 264 260 260 259 260
287 287 287 287 287 288 288 288 288 287 287 287 287 286 286 285 285 284 283 282 282 281 281 280 279 279 278 277 277 277 275 275 275 275 275 274 274 274 273 273 272 271 270 270 270 269 269 270 271 272 270 269 269 269 268 266 264 263 264 266 272 273 272 270 263 261 263 266 267 262 258 256 257 258
287 287 287 287 287 288 288 288 288 287 287 287 286 286 285 284 284 283 282 281 281 280 280 279 279 278 277 277 277 276 275 275 274 274 274 274 273 273 273 272 271 271 270 269 269 269 270 271 270 270 269 269 268 267 265 265 263 263 262 261 260 268 272 272 273 272 269 267 262 258 256 259 262 263
287 287 287 287 287 287 288 287 287 287 287 287 286 285 284 283 282 281 281 280 280 279 279 278 278 278 277 277 276 276 275 274 274 274 274 274 273 272 272 272 271 271 271 270 269 269 269 269 269 268 268 268 265 265 264 264 264 263 261 259 261 257 259 270 272 274 274 274 272 266 262 263 263 262
286 286 287 287 287 287 287 287 287 287 286 286 285 284 283 282 281 281 281 280 279 279 278 278 277 277 276 276 276 275 275 275 274 274 273 273 273 273 272 272 271 271 269 268 268 268 268 268 268 268 267 266 265 265 264 264 263 263 262 260 258 258 263 265 269 273 273 274 273 273 274 273 273 273
286 286 286 287 287 287 286 286 286 285 285 284 283 282 281 281 280 280 280 279 279 278 277 277 276 276 276 276 275 274 275 275 275 274 274 273 273 272 272 271 270 269 268 268 267 267 267 267 267 267 266 265 264 264 265 264 263 263 261 260 260 260 262 266 268 268 268 268 273 274 274 274 274 274
Wind_Speed
15 14 16 15 13 12 12 10 11 12 11 11 10 10 12 11 11 12 10 12 10 4 10 8 6 10 9 10 8 9 10 13 14 10 11 11 11 14 19 21 19 18 20 20 20 20 22 22 21 21 20 19 18 18 17 17 16 16 15 15 15 15 14 15 14 14 16 16 16 17 18 18 18 19
13 14 14 13 13 12 12 12 10 10 12 11 12 11 11 10 14 13 13 15 7 6 6 9 6 6 10 9 8 9 11 15 16 10 10 11 11 16 16 16 16 18 19 22 23 22 22 22 21 20 19 19 18 18 18 17 16 15 15 15 15 14 14 13 14 16 17 18 19 18 18 19 19 19
12 14 15 14 14 12 13 12 11 10 10 11 11 11 10 12 14 14 12 14 8 8 8 8 7 7 10 10 10 8 9 11 14 11 10 11 13 12 9 15 16 18 19 19 19 20 22 22 23 22 20 19 19 18 18 18 17 16 15 15 14 15 15 16 16 17 17 17 18 18 18 19 19 20
12 14 15 15 14 12 12 12 12 12 11 11 11 11 11 12 12 12 12 15 17 6 7 7 9 11 9 9 9 8 8 6 10 8 9 9 9 7 9 13 17 18 18 18 18 18 17 18 23 24 23 24 23 22 21 21 19 17 16 16 15 15 16 16 16 17 18 18 18 18 19 19 19 20
13 14 15 15 14 13 14 13 12 12 13 12 12 11 10 11 10 11 12 15 17 6 2 4 6 7 7 5 8 9 7 6 6 6 6 5 7 8 8 8 13 16 17 17 16 17 17 18 17 19 20 21 23 23 22 20 20 19 17 15 16 15 16 17 18 18 18 18 18 17 18 19 20 20
13 13 15 15 13 12 15 13 12 12 12 12 12 11 10 11 9 9 11 14 13 15 2 4 1 1 4 7 3 9 9 9 5 7 7 5 6 7 6 6 6 12 15 16 17 17 17 16 15 14 14 16 17 19 22 18 16 17 16 14 14 15 16 16 17 16 16 17 17 17 17 17 18 19
13 14 14 15 12 11 12 12 11 9 10 9 10 11 8 11 11 9 11 11 13 14 9 5 6 6 4 9 8 8 6 4 6 7 8 7 5 5 5 6 5 9 12 14 14 16 16 16 15 14 14 13 14 14 14 15 12 13 15 16 14 13 14 15 15 15 15 16 16 16 17 17 18 19
14 15 14 15 13 11 12 12 10 10 9 9 9 10 9 10 11 11 9 11 12 11 12 4 7 5 8 7 0 2 2 4 5 6 4 3 6 5 5 6 6 7 11 13 15 15 15 15 15 16 15 14 13 12 11 10 9 8 8 9 10 11 12 13 14 14 14 14 14 15 15 16 18 18
14 14 15 15 12 11 13 12 12 11 12 11 10 11 10 11 12 10 10 11 11 12 14 8 4 2 2 1 2 4 6 2 2 1 5 5 6 6 5 4 5 5 9 11 13 13 13 14 14 12 14 11 9 10 11 10 10 9 10 10 11 12 12 13 14 14 14 13 14 15 16 16 17 17
14 14 15 14 12 12 14 14 12 11 12 11 12 13 12 11 11 12 12 10 10 12 14 13 7 3 7 4 3 5 6 7 5 3 3 2 5 6 6 5 4 3 4 4 6 8 10 12 13 13 12 11 11 11 12 12 11 11 11 12 12 13 13 13 13 13 13 14 14 15 15 15 15 16
13 14 14 13 13 14 14 14 13 11 11 11 12 11 11 11 10 11 10 10 12 11 11 8 5 5 3 4 6 2 3 2 4 7 4 6 5 4 6 6 4 4 4 4 7 7 6 7 8 10 12 12 12 12 12 11 12 11 11 12 13 13 13 13 13 14 14 14 14 14 15 14 14 14
12 13 13 14 14 14 14 14 13 12 13 11 13 12 12 12 11 10 7 8 9 11 11 10 8 5 6 2 2 3 3 2 4 7 9 11 7 8 7 8 6 4 4 5 4 4 5 6 7 8 9 11 11 11 9 10 9 9 9 11 12 13 13 14 13 14 14 14 14 13 13 12 12 13
12 12 13 14 13 15 17 19 17 16 15 12 12 11 10 11 11 12 10 10 10 10 10 11 7 6 6 7 8 6 6 12 15 7 7 8 6 3 3 4 4 5 5 4 4 5 5 4 5 4 5 5 6 7 7 5 7 8 10 11 12 12 13 13 13 13 13 12 11 11 10 10 11 11
13 13 12 13 17 18 18 19 20 21 20 20 17 14 13 14 13 12 11 11 11 11 11 11 9 8 9 9 10 12 12 8 3 6 8 9 6 3 2 2 5 6 6 5 6 5 4 5 5 4 6 4 4 5 5 5 5 7 10 10 10 11 11 11 10 10 9 9 8 8 8 9 9 10
13 13 14 14 16 18 18 18 21 21 22 23 24 24 21 17 15 13 12 12 11 10 10 10 9 11 12 11 10 11 10 6 9 8 9 7 4 6 7 7 1 5 9 7 5 4 4 5 6 5 5 4 3 4 5 7 9 10 10 10 9 8 7 6 6 5 5 5 5 5 6 7 8 9
11 11 10 10 10 11 13 14 14 16 19 20 22 25 24 22 21 20 16 14 11 11 11 11 12 11 13 12 9 10 7 9 8 8 6 8 8 8 8 6 5 4 10 7 5 3 3 4 4 4 5 4 4 5 7 10 10 8 7 5 5 4 4 4 3 2 2 3 4 4 5 7 8 9
12 11 12 13 12 12 15 11 10 10 13 19 24 24 24 23 22 21 23 21 17 12 14 13 13 13 12 11 11 13 14 10 10 6 6 6 7 8 8 7 4 3 7 6 4 4 2 4 4 5 3 3 3 4 8 8 6 4 2 2 3 3 4 3 2 2 1 2 3 4 5 7 8 10
14 13 12 11 10 8 8 10 13 15 15 15 15 15 14 14 17 19 19 19 20 16 14 14 15 13 10 13 13 13 10 12 12 10 11 9 9 10 10 3 3 4 8 9 6 2 2 2 3 4 3 1 1 2 4 5 6 7 8 7 7 7 6 6 5 3 1 1 2 4 6 7 9 10
13 12 11 11 13 12 12 13 14 13 11 10 11 12 14 15 14 13 12 12 12 12 12 11 12 11 12 14 9 9 12 15 14 15 14 15 11 4 5 6 4 4 3 4 5 6 2 2 3 3 1 2 4 3 5 9 9 10 10 10 10 10 9 7 6 5 4 5 6 6 7 7 8 9
11 11 11 12 12 11 10 11 15 16 12 12 13 13 12 10 10 10 11 14 17 16 14 14 14 13 11 12 10 11 13 11 6 6 7 7 6 7 6 5 3 3 4 3 4 4 3 3 5 3 1 4 5 4 4 7 12 12 13 13 13 12 11 11 10 9 9 8 7 7 7 7 8 9
11 10 8 8 9 10 11 13 15 18 16 12 12 12 12 11 9 10 7 10 14 15 14 13 13 10 10 12 13 15 18 13 10 8 8 7 8 8 8 5 5 6 6 5 4 5 5 5 4 5 2 3 3 3 4 3 11 14 15 14 14 13 12 11 11 10 9 9 9 8 9 8 8 9
9 11 14 11 10 11 11 11 14 16 14 12 11 9 9 9 9 8 5 4 4 5 9 9 9 9 9 12 14 15 17 16 14 12 13 11 11 10 9 9 7 4 5 7 6 6 5 6 3 6 3 6 2 1 2 4 5 10 12 14 13 12 12 11 12 11 11 10 10 9 9 9 9 5
10 12 10 13 13 12 12 12 14 16 15 13 13 13 11 13 11 11 7 8 5 5 5 6 6 6 10 9 9 11 18 19 17 13 10 11 12 11 9 7 6 3 5 7 7 8 5 9 6 8 5 3 1 0 1 3 4 5 5 5 7 11 11 12 12 12 12 11 10 10 10 11 9 4
9 9 8 9 12 15 15 14 14 14 16 13 11 9 9 11 13 6 8 10 10 10 10 7 6 5 4 5 5 6 9 10 9 7 6 10 11 10 10 10 10 7 6 7 11 8 4 5 8 4 3 8 6 3 1 2 2 2 2 4 4 7 9 10 10 13 12 10 10 10 11 11 9 5
11 10 8 6 9 13 14 14 15 15 16 16 12 10 11 12 11 8 9 11 13 9 8 6 5 4 3 3 3 5 6 7 7 4 4 6 7 8 10 9 9 5 3 5 14 8 7 7 7 3 2 4 5 7 2 2 1 1 2 4 5 3 5 6 5 5 8 9 11 11 11 11 11 8
10 9 6 6 7 13 16 16 17 18 17 18 11 13 15 17 13 9 10 8 9 8 7 6 6 5 6 6 5 5 6 6 6 4 3 3 3 1 4 10 10 7 5 7 15 8 8 7 9 7 4 6 1 5 7 2 1 1 2 4 4 2 5 5 5 4 4 3 5 7 8 11 10 11
9 8 8 8 10 14 16 17 18 18 19 15 12 15 14 14 11 8 4 5 7 7 7 8 9 9 8 8 7 7 6 6 6 5 5 5 5 4 5 4 1 4 6 11 8 7 7 5 6 9 7 5 10 3 4 5 3 2 3 4 4 4 5 6 5 3 5 5 5 11 10 10 10 10
9 9 8 8 12 14 16 18 18 17 16 12 15 17 18 18 13 7 6 6 6 5 5 6 7 9 9 7 8 8 6 5 6 7 7 8 8 9 7 7 8 7 9 9 7 6 6 7 6 2 8 11 11 11 7 0 4 4 6 3 4 4 3 3 3 4 5 5 5 5 5 5 5 4
9 11 15 16 15 14 16 17 17 15 16 17 17 17 17 13 6 7 6 7 8 9 10 10 9 6 7 7 5 5 6 7 7 8 6 6 7 9 10 9 8 8 7 5 6 5 6 8 7 5 5 4 8 4 7 6 5 4 5 6 3 2 2 3 5 4 4 5 5 3 2 2 4 3
17 17 17 18 17 15 14 10 9 7 9 14 17 16 12 7 7 8 9 9 11 12 11 11 12 12 10 8 7 9 8 7 7 7 7 7 5 7 9 10 9 7 7 6 6 6 6 7 7 7 6 4 5 8 7 9 6 5 4 4 6 3 1 3 4 3 4 3 3 2 2 1 1 2
9 11 11 10 12 11 14 15 12 9 8 6 6 5 7 7 8 8 8 10 11 10 10 10 7 4 5 7 9 9 8 7 6 6 8 7 6 6 7 12 11 8 6 6 7 7 6 7 6 7 9 6 5 6 5 6 8 7 4 4 5 5 2 4 3 3 3 1 2 1 2 4 5 3
8 8 8 9 7 6 6 5 4 5 4 5 5 6 6 6 6 7 8 5 5 5 3 3 6 7 8 9 6 6 7 8 7 8 7 7 7 6 8 10 9 8 7 6 7 8 8 6 5 4 4 6 9 6 6 6 7 7 6 5 5 5 5 4 3 2 1 1 2 1 1 2 2 2
7 6 6 6 5 4 5 5 5 5 5 4 4 5 5 5 6 6 7 9 9 7 6 8 9 9 9 8 8 7 7 7 8 6 6 6 9 6 4 8 8 11 13 9 7 7 7 7 6 6 5 5 5 9 10 8 4 5 7 6 6 5 3 4 4 1 1 2 2 2 1 1 1 2
9 7 7 7 6 6 5 6 6 6 6 6 6 5 5 6 7 8 8 9 8 8 9 9 10 10 10 11 11 12 10 9 8 8 9 9 8 9 8 9 6 7 8 8 10 8 6 6 7 8 8 7 6 4 3 6 8 5 6 5 6 5 3 3 2 1 2 3 3 1 1 3 2 2
7 8 8 8 6 7 6 8 7 6 6 6 7 7 6 6 8 8 8 8 6 7 9 9 9 9 11 12 13 13 12 9 10 9 6 9 10 11 11 12 9 9 10 9 8 8 9 8 9 8 7 6 6 3 3 3 7 6 5 4 4 6 3 2 1 2 2 3 1 2 1 0 3 3
10 7 9 8 7 6 7 8 6 6 6 6 6 6 7 8 7 8 10 8 9 9 8 8 9 10 10 10 11 11 11 11 9 10 9 9 10 8 7 8 11 10 10 11 9 10 10 9 10 11 10 7 6 5 0 4 6 5 7 5 5 4 3 3 2 2 3 3 3 3 2 1 2 3
11 8 9 9 8 7 8 7 7 7 7 8 8 8 9 9 9 10 9 8 9 9 10 9 10 10 11 11 10 11 12 11 11 10 8 10 9 9 9 7 7 10 10 9 10 11 10 10 8 9 10 7 8 7 6 3 6 7 5 7 5 5 5 4 4 3 1 3 3 3 1 0 1 3
10 8 9 9 8 8 7 7 7 7 7 7 8 8 9 8 7 7 6 8 9 8 9 9 8 8 9 9 11 12 11 11 10 9 8 10 11 11 11 10 10 9 9 9 9 10 9 9 9 8 9 11 9 9 9 3 3 6 7 7 7 5 3 6 5 3 2 1 3 0 1 1 1 2
9 9 9 9 8 7 8 7 7 8 8 8 8 9 8 8 7 7 8 8 8 8 8 8 8 9 10 11 11 13 14 14 12 12 11 11 11 12 11 11 10 9 10 9 8 8 8 8 8 7 6 8 11 11 10 10 7 5 4 11 8 6 3 6 6 4 4 1 0 1 0 1 3 5
9 8 9 9 9 8 8 7 8 8 9 9 9 8 8 9 8 8 9 8 9 8 8 8 9 8 8 8 9 8 8 11 11 10 11 11 10 11 11 10 11 11 10 10 10 8 8 7 7 6 5 2 3 6 7 7 5 2 4 9 11 7 6 5 4 5 3 3 2 1 1 2 4 4
8 9 9 8 9 8 9 8 8 8 9 8 8 8 9 8 8 8 8 9 8 9 8 8 8 9 9 10 10 11 11 9 9 9 9 9 9 10 11 11 10 10 11 10 9 8 8 6 6 9 9 8 9 10 10 8 7 6 5 3 6 9 10 7 4 3 3 2 3 3 4 2 1 3
8 9 9 8 9 9 9 9 8 8 9 8 8 8 8 8 8 8 8 8 8 8 8 8 8 9 9 10 10 9 10 10 9 9 9 9 10 11 13 11 11 10 10 11 10 8 7 8 10 10 8 8 8 8 8 9 10 7 5 2 2 5 3 5 7 6 4 3 3 3 2 2 0 2
8 9 9 8 8 9 8 9 9 8 8 8 8 7 7 7 7 8 7 8 9 9 9 8 8 9 9 9 9 9 9 9 9 10 10 10 10 11 11 9 10 10 9 8 8 8 8 8 8 8 7 5 2 2 8 8 7 7 5 4 1 1 2 3 3 3 7 10 7 4 3 4 4 2
8 8 8 8 8 8 8 8 8 8 8 7 7 7 7 8 9 9 9 9 9 10 9 9 9 9 9 9 9 9 9 9 10 10 10 10 10 9 9 9 9 9 8 8 8 8 8 7 6 7 7 5 3 6 8 8 7 6 6 4 1 3 3 1 2 7 7 8 7 6 8 7 3 5
8 8 8 8 8 8 8 7 7 7 7 7 6 7 7 7 8 8 8 8 9 9 9 9 9 9 9 9 10 10 9 9 10 9 9 9 9 9 9 9 9 8 8 11 11 8 8 7 6 5 4 4 3 5 6 7 7 7 5 5 5 3 2 2 5 4 3 2 4 5 6 6 5 5
Wind_Direction
225 227 224 225 229 226 226 221 218 221 221 224 221 212 218 219 240 256 255 245 236 220 205 218 224 206 212 218 213 210 213 220 213 208 212 217 224 223 222 228 230 227 229 231 230 228 226 224 223 224 224 223 223 224 225 227 230 233 235 238 241 244 247 251 257 260 260 261 262 262 265 267 269 271
225 228 228 226 231 227 227 227 217 212 217 220 218 217 218 210 225 237 249 262 175 235 203 211 217 198 213 213 214 210 216 218 210 210 209 217 222 224 221 223 225 226 226 228 230 230 228 225 224 222 220 220 220 222 224 225 227 232 236 238 242 245 248 251 251 252 255 258 263 267 269 270 270 270
227 230 231 229 233 227 231 230 223 217 214 218 216 219 211 216 221 232 240 264 244 175 211 221 215 198 209 204 211 213 219 219 207 206 208 215 222 220 218 219 221 223 223 224 228 231 231 229 230 228 221 218 220 223 225 226 228 230 234 238 242 245 246 248 252 256 261 265 268 268 269 269 271 273
227 230 232 229 230 228 232 231 226 224 219 218 217 214 214 220 220 224 237 242 257 178 201 200 206 209 205 200 206 214 224 222 201 211 211 216 209 204 222 219 219 223 224 224 224 228 231 234 233 232 229 230 230 232 234 234 234 231 232 239 242 246 252 254 256 258 260 263 265 267 268 270 272 274
231 231 234 233 230 227 230 230 228 224 224 222 224 219 216 222 215 218 229 243 258 252 239 194 210 210 195 208 204 215 211 207 206 208 220 201 202 209 215 218 219 221 221 222 222 226 229 233 234 234 235 235 235 236 236 236 237 238 235 238 243 245 249 253 255 258 262 265 266 266 267 270 274 279
231 232 235 235 231 226 231 231 227 223 225 223 225 224 220 225 220 210 224 242 249 257 184 248 317 247 187 220 186 208 204 214 176 199 207 204 202 210 213 215 216 216 223 225 226 226 227 229 229 230 230 233 236 234 236 235 235 234 236 237 240 245 252 257 259 261 263 265 266 270 273 277 279 281
230 234 235 237 232 230 234 233 232 224 227 224 227 227 217 227 226 216 222 237 249 255 250 190 213 207 197 208 212 211 215 184 177 189 205 204 205 218 213 216 219 210 216 222 223 224 226 227 228 227 229 231 233 232 233 235 230 234 239 240 239 242 246 248 253 256 260 263 266 269 274 278 282 284
231 233 236 237 232 231 236 238 236 235 229 226 228 231 228 229 231 230 227 231 246 255 266 212 215 197 194 234 198 128 109 154 181 202 194 187 211 214 211 215 218 213 211 215 220 224 226 227 229 230 230 229 226 224 221 220 218 213 217 225 231 234 239 246 250 253 258 265 271 277 280 281 282 282
231 233 234 238 233 232 237 239 235 233 232 231 231 233 232 231 232 230 228 233 233 245 250 248 214 173 212 128 134 159 161 159 171 156 201 207 217 220 218 216 218 206 205 210 214 218 219 221 220 215 222 209 201 208 212 212 211 213 218 223 230 236 241 244 248 251 256 260 269 276 279 282 283 284
230 233 235 236 232 232 232 236 233 229 230 228 229 229 227 227 229 232 230 226 236 244 247 245 223 167 183 198 205 194 181 168 190 220 234 237 229 215 229 225 205 190 192 200 211 218 221 221 221 221 218 209 207 208 214 214 216 219 222 228 230 233 239 244 247 252 259 266 270 275 278 281 284 287
234 235 236 235 230 229 230 232 230 226 226 224 229 228 230 231 231 232 227 219 221 227 244 250 225 199 227 190 209 186 181 189 194 197 185 246 218 206 210 229 210 193 207 217 209 209 207 212 221 225 224 221 216 215 214 213 217 220 223 228 234 238 242 247 252 261 265 269 273 275 278 282 286 290
236 235 236 235 229 227 228 228 230 223 228 223 228 221 218 219 219 227 227 231 230 229 230 234 226 202 184 162 66 86 120 191 285 219 200 219 208 210 208 220 196 192 185 209 215 220 210 218 223 222 225 226 223 220 219 220 219 220 222 231 237 243 250 256 260 264 268 272 274 276 281 285 288 290
236 237 234 234 233 229 229 224 222 221 220 222 229 226 220 225 222 226 222 224 224 229 230 235 222 202 187 200 173 167 183 201 213 179 179 228 228 186 195 233 203 184 186 201 199 217 198 201 215 208 224 233 228 232 226 221 224 225 233 240 244 248 253 258 263 267 269 272 275 279 282 284 287 290
234 233 233 236 236 236 233 231 228 223 217 214 216 218 213 218 220 222 220 221 221 223 224 228 215 211 214 199 199 201 213 204 96 146 177 212 210 135 221 262 212 185 177 180 211 213 178 192 208 193 223 223 208 224 224 221 210 223 236 244 249 254 259 263 266 268 273 276 280 284 286 288 289 289
239 237 233 231 222 222 226 225 222 222 223 225 225 226 222 214 210 212 215 220 215 217 224 224 213 218 221 216 200 208 207 184 193 191 190 196 151 183 189 225 213 189 172 188 198 205 176 177 204 205 217 211 212 216 220 221 223 230 237 243 248 255 262 267 271 278 283 285 287 284 282 283 285 289
241 240 240 240 240 232 228 223 223 229 232 232 232 233 233 228 216 208 204 212 216 216 221 220 218 211 219 216 181 207 185 197 197 201 175 186 185 183 201 208 206 185 168 164 180 182 134 186 192 204 221 200 211 212 214 219 222 225 226 231 235 240 249 250 253 270 274 273 273 276 281 285 291 297
247 243 238 236 230 229 223 229 239 241 238 236 237 236 233 229 222 221 221 216 211 205 215 221 221 211 213 209 207 198 200 181 184 169 182 190 199 202 203 206 170 167 174 136 146 167 186 168 180 208 229 193 203 214 212 210 208 196 162 98 86 87 87 92 108 139 186 254 280 290 297 301 302 303
241 239 238 241 242 240 231 228 227 229 230 227 230 235 235 235 237 238 236 233 229 220 216 217 224 221 199 213 212 202 164 160 184 175 200 191 194 200 207 166 121 113 171 168 145 104 220 168 150 196 266 202 174 193 190 149 111 93 95 98 102 105 107 111 114 109 99 344 322 314 318 318 320 323
251 248 247 247 249 242 228 223 213 225 233 239 238 233 231 229 227 223 223 224 229 231 233 229 229 224 209 220 207 168 179 186 187 187 191 188 188 140 77 57 64 120 181 143 129 167 191 117 135 203 192 95 61 19 84 101 101 106 109 110 109 105 103 100 98 79 55 32 21 7 357 349 344 340
256 253 243 239 237 235 234 237 228 230 229 224 229 228 230 232 232 232 227 224 223 221 219 220 222 222 210 204 189 175 180 188 155 102 76 98 118 142 156 160 151 160 207 188 143 113 171 177 126 154 57 87 72 46 43 95 110 114 110 104 101 97 92 86 80 72 63 53 42 26 17 7 3 0
256 254 247 244 245 243 241 227 217 226 226 235 233 232 230 226 220 230 228 243 246 244 242 240 238 228 209 199 190 183 184 178 158 133 129 157 149 152 177 168 156 199 170 213 154 122 136 174 131 115 54 83 98 67 60 66 113 110 105 103 100 96 91 86 78 72 65 58 47 38 31 21 17 11
259 254 245 240 243 243 243 232 221 223 219 232 235 232 239 245 242 244 221 230 245 233 227 229 227 220 208 200 192 188 184 171 158 160 182 176 165 186 183 176 179 137 179 197 158 123 168 148 144 115 129 77 28 27 45 55 58 93 99 98 95 91 88 84 77 69 63 56 47 41 32 23 26 27
250 252 243 237 238 242 248 237 227 226 218 225 224 219 220 230 232 232 195 206 190 198 198 211 190 206 203 197 190 194 187 177 181 188 179 156 173 178 182 150 114 123 245 213 170 150 165 149 194 150 125 78 334 331 5 63 74 79 74 74 84 89 83 78 72 67 62 51 44 42 33 26 28 23
265 258 255 234 233 242 247 247 240 230 218 223 232 223 222 225 236 206 190 202 195 202 201 203 205 210 186 179 183 177 180 181 186 183 157 174 176 177 171 168 172 176 182 175 167 151 151 167 175 191 156 141 171 187 65 92 77 108 124 98 79 78 78 73 65 63 56 45 47 45 34 29 29 27
268 267 258 258 232 233 242 242 241 235 227 223 225 220 224 218 229 187 195 203 197 194 194 186 177 158 148 167 174 173 171 174 178 163 153 181 188 166 165 167 188 190 208 187 157 133 157 171 176 145 55 78 132 128 203 133 178 116 102 102 101 69 80 76 80 65 56 48 45 40 32 34 30 32
267 271 277 264 236 229 234 235 234 233 229 224 222 228 226 233 226 187 205 190 187 189 180 176 171 168 172 174 178 179 173 167 161 141 131 157 163 126 159 172 172 177 195 180 160 140 124 163 175 151 146 117 110 126 136 149 198 181 102 86 100 102 95 91 82 84 78 61 37 36 33 29 30 30
270 268 261 254 236 228 233 236 237 236 232 229 229 232 229 231 216 199 185 181 183 192 189 181 183 184 182 181 186 181 176 162 143 128 114 111 108 85 53 43 99 150 137 149 145 134 132 139 173 162 162 143 137 147 112 141 203 212 67 78 77 71 83 90 87 84 77 57 48 39 32 22 25 24
273 278 273 263 251 240 237 237 238 237 230 223 224 221 223 219 207 182 178 166 182 175 179 199 205 201 190 180 184 187 164 143 123 107 102 88 89 91 71 74 78 92 116 126 123 127 133 137 163 194 148 152 154 161 165 82 104 139 128 116 81 76 81 83 67 89 82 63 55 35 34 5 344 352
270 270 274 277 269 256 248 244 244 242 235 229 228 225 221 206 175 182 170 179 170 184 193 198 200 207 208 198 159 108 107 107 101 98 80 75 80 91 91 81 76 76 81 85 97 106 129 143 145 132 117 135 140 149 139 148 142 147 155 137 98 79 71 95 102 98 90 85 79 66 71 24 343 332
276 277 276 272 268 261 256 252 249 243 233 228 228 226 210 188 190 182 191 192 191 199 199 192 194 194 178 170 150 130 123 130 137 126 126 122 109 110 115 98 58 54 55 64 82 90 102 114 129 128 112 98 125 140 141 129 127 132 142 135 144 125 61 90 104 101 98 95 101 78 23 85 351 19
272 272 268 261 253 245 244 240 243 245 243 238 231 207 196 199 199 200 198 196 201 207 203 205 196 161 144 98 119 151 151 140 143 143 138 117 125 116 111 106 99 82 50 49 62 73 88 98 104 125 125 118 91 110 119 113 126 139 145 154 147 138 168 109 113 106 92 115 139 103 50 27 14 18
280 283 280 270 269 259 258 249 241 235 223 223 216 203 194 199 196 197 205 211 220 221 192 123 102 97 125 151 138 96 123 132 133 153 141 129 128 134 129 107 115 112 96 72 66 59 68 69 74 56 107 139 136 125 100 109 129 144 150 152 128 106 110 116 111 122 148 132 90 91 130 108 24 325
289 287 280 274 265 247 248 241 232 230 221 221 221 213 195 185 187 189 187 199 203 188 151 159 159 159 154 156 152 142 138 155 157 155 132 134 130 138 93 115 131 146 135 125 95 80 70 68 59 77 81 67 97 126 132 120 150 159 151 144 122 131 150 147 133 156 100 107 142 144 32 339 280 299
291 283 276 265 256 252 237 240 235 229 220 208 195 209 204 196 192 198 203 203 194 174 181 176 169 167 167 165 165 168 162 158 162 167 158 153 149 139 139 134 139 141 126 126 119 112 104 93 92 76 65 57 44 59 100 128 147 161 145 133 128 138 148 122 142 154 150 166 141 55 52 345 322 302
260 274 269 267 251 250 244 243 240 226 223 215 207 210 208 218 210 202 201 206 192 190 187 182 177 169 172 175 177 177 171 159 159 163 160 150 157 155 148 145 149 154 148 143 131 133 130 132 124 106 90 88 87 37 133 131 128 143 126 130 134 127 142 154 115 71 89 57 84 100 130 311 333 303
267 255 262 264 257 247 243 243 238 230 221 215 208 205 208 218 215 212 215 195 183 190 185 183 181 181 181 177 179 176 168 163 160 163 160 165 159 146 145 142 148 153 151 150 143 143 144 147 144 137 133 136 132 125 324 165 150 152 138 147 138 137 160 146 122 109 81 60 105 115 89 336 300 302
265 253 255 258 256 246 248 243 234 231 222 219 215 209 211 214 211 215 216 194 199 195 191 186 192 185 180 177 176 178 172 164 163 163 163 161 148 146 138 138 146 151 150 154 148 146 150 153 157 149 140 138 150 152 162 177 157 147 136 140 150 155 155 136 97 75 81 106 72 117 158 164 287 309
257 257 254 256 254 254 248 245 237 234 228 222 224 221 221 223 218 217 207 204 207 199 190 191 190 183 180 174 173 172 172 167 153 156 165 162 157 158 156 149 155 158 153 149 151 151 153 155 161 168 157 156 149 150 157 166 148 157 142 138 146 179 145 118 118 122 73 104 127 196 87 53 328 300
254 255 254 255 255 250 250 243 234 237 229 225 222 222 222 219 212 198 198 206 205 202 194 189 187 183 179 182 182 173 167 165 171 173 167 171 166 157 153 154 151 152 147 151 150 148 151 162 166 171 177 165 171 179 163 150 159 174 177 144 140 138 145 138 149 154 126 77 329 321 227 224 217 27
251 247 251 251 254 249 249 243 238 235 233 227 224 222 217 217 207 203 199 199 200 199 195 194 182 174 176 170 168 164 168 172 170 167 167 164 163 154 151 153 151 150 150 151 154 157 160 166 163 165 155 152 77 101 101 100 82 95 130 146 145 141 163 149 148 140 146 187 171 107 358 8 38 327
249 249 246 242 249 246 248 244 238 236 234 229 226 221 218 215 209 206 201 196 192 191 191 186 176 175 171 167 170 170 170 170 166 163 158 158 154 152 147 142 147 154 152 155 153 152 147 140 119 113 115 116 123 113 106 109 120 127 109 78 119 139 152 146 155 146 151 176 159 144 112 125 106 356
254 254 253 243 244 245 239 245 236 234 233 227 223 217 214 208 211 195 192 189 187 189 184 180 175 171 171 170 169 166 168 167 165 163 161 159 154 148 152 153 152 154 153 154 154 125 101 114 120 120 122 129 143 142 150 149 145 144 144 133 336 10 62 146 169 181 165 135 124 114 65 20 15 71
254 255 256 250 246 247 243 241 239 232 233 225 221 210 203 201 189 185 185 184 185 182 184 179 176 172 168 166 166 164 160 160 160 158 157 159 156 154 156 160 155 150 141 125 112 112 117 121 124 126 136 137 126 110 146 148 141 135 129 100 84 337 337 354 207 164 146 166 169 165 171 156 142 84
256 257 256 253 250 248 245 241 239 235 229 225 215 203 197 194 195 192 188 186 183 183 177 175 171 168 166 163 160 160 161 158 156 156 159 159 156 152 150 147 143 135 126 119 118 118 124 124 130 136 141 153 137 137 144 138 136 134 131 133 76 71 95 52 139 112 105 116 120 127 145 167 134 129
260 259 261 256 252 249 245 240 235 230 224 213 201 197 197 195 195 190 188 183 180 174 170 170 167 166 160 160 161 162 159 152 150 150 149 149 151 144 140 144 141 132 128 137 124 121 130 127 123 116 108 119 110 132 130 128 134 133 130 116 116 112 121 124 131 113 98 27 108 134 141 103 78 69